Weather History for Cannes, France

Change the Weather History Date:

Friday, January 3, 2014

  Actual Average Record
Temperature  
Mean Temperature 52 °F -  
Max Temperature 55 °F 52 °F - ()
Min Temperature 49 °F 39 °F - ()
Degree Days  
Heating Degree Days 13    
Growing Degree Days 2 (Base 50)    
Moisture  
Dew Point 48 °F    
Average Humidity 89    
Maximum Humidity 95    
Minimum Humidity 77    
Precipitation  
Precipitation 0.02 in - - ()
Sea Level Pressure  
Sea Level Pressure 30.06 in    
Wind  
Wind Speed 2 mph ()    
Max Wind Speed 5 mph    
Max Gust Speed -    
Visibility 6.1 miles    
Events Rain    
T = Trace of Precipitation, MM = Missing Value Source: Averaged Metar Reports

Daily Weather History Graph

Daily Weather History Graph

Search for Another Location

Airport:

Trip Planner

Search our weather history database for the weather conditions in past years. The results will help you decide how hot, cold, wet, or windy it might be!

Date:

Astronomy

Jan. 03, 2014 Rise Set
Actual Time 8:05 AM CET 5:08 PM CET
Civil Twilight 7:32 AM CET 5:40 PM CET
Nautical Twilight 6:56 AM CET 6:16 PM CET
Astronomical Twilight 6:22 AM CET 6:51 PM CET
Moon 9:15 AM CET (1/3) 8:03 PM CET (1/3)
Length of Visible Light 10h 07m
Length of Day
9h 02m
Waxing Crescent, 6% of the Moon is Illuminated
Jan 3
Waxing Crescent
Jan 8
First Quarter
Jan 16
Full
Jan 24
Last Quarter
Jan 30
New

Hourly Weather History & Observations

Time (CET) Temp. Dew Point Humidity Pressure Visibility Wind Dir Wind Speed Gust Speed Precip Events Conditions
12:00 AM 50 °F 49 °F 93% 30.01 in 4 mi NNE 1.2 mph - -   Clear
12:00 AM 50.0 °F 48.2 °F 94% 30.01 in 3.7 mi Variable 1.2 mph - N/A   Overcast
12:30 AM 50.0 °F 48.2 °F 94% 29.98 in 3.7 mi Variable 2.3 mph - N/A   Overcast
1:00 AM 50 °F 49 °F 93% 30.01 in 4 mi Calm Calm - -   Clear
1:00 AM 50.0 °F 48.2 °F 94% 30.01 in 4.3 mi Calm Calm - N/A   Overcast
1:30 AM 50.0 °F 48.2 °F 94% 30.01 in - Calm Calm - N/A   Overcast
2:00 AM 50 °F 48 °F 90% 30.02 in 3 mi North 2.3 mph - -   Mist
2:00 AM 50.0 °F 48.2 °F 94% 30.01 in 3.1 mi North 2.3 mph - N/A   Overcast
2:30 AM 50.0 °F 48.2 °F 94% 30.01 in 2.8 mi Variable 3.5 mph - N/A   Overcast
3:00 AM 50 °F 48 °F 91% 30.02 in 4 mi North 3.5 mph - -   Clear
3:00 AM 50.0 °F 48.2 °F 94% 30.01 in 3.7 mi Variable 3.5 mph - N/A   Overcast
3:30 AM 50.0 °F 48.2 °F 94% 30.01 in 4.3 mi Calm Calm - N/A   Overcast
4:00 AM 49 °F 48 °F 95% 30.02 in 5 mi East 2.3 mph - -   Clear
4:00 AM 50.0 °F 48.2 °F 94% 30.01 in 5.0 mi Variable 2.3 mph - N/A   Overcast
4:30 AM 50.0 °F 48.2 °F 94% 30.01 in 4.3 mi Variable 2.3 mph - N/A   Overcast
5:00 AM 49 °F 48 °F 93% 30.02 in 8 mi North 3.5 mph - -   Clear
5:00 AM 50.0 °F 48.2 °F 94% 30.01 in 6.2 mi Variable 3.5 mph - N/A   Overcast
5:30 AM 50.0 °F 48.2 °F 94% 30.01 in 6.2 mi Variable 2.3 mph - N/A   Overcast
6:00 AM 49 °F 47 °F 91% 30.03 in 16 mi North 3.5 mph - -   Clear
6:00 AM 50.0 °F 46.4 °F 87% 30.01 in 6.2 mi Variable 3.5 mph - N/A   Overcast
6:30 AM 50.0 °F 48.2 °F 94% 30.04 in 5.6 mi Variable 2.3 mph - N/A   Overcast
7:00 AM 49 °F 48 °F 93% 30.05 in 7 mi North 3.5 mph - -   Clear
7:00 AM 50.0 °F 48.2 °F 94% 30.04 in 6.2 mi Variable 3.5 mph - N/A   Overcast
7:30 AM 50.0 °F 48.2 °F 94% 30.04 in 6.2 mi North 4.6 mph - N/A   Overcast
8:00 AM 50 °F 48 °F 89% 30.06 in 8 mi NNE 3.5 mph - -   Clear
8:00 AM 50.0 °F 48.2 °F 94% 30.04 in 6.2 mi Variable 3.5 mph - N/A   Overcast
8:30 AM 50.0 °F 48.2 °F 94% 30.04 in 5.0 mi Variable 3.5 mph - N/A   Overcast
9:00 AM 50 °F 48 °F 89% 30.07 in 4 mi NNE 3.5 mph - -   Clear
9:00 AM 50.0 °F 48.2 °F 94% 30.06 in 3.7 mi Variable 3.5 mph - N/A   Overcast
9:30 AM 50.0 °F 48.2 °F 94% 30.06 in 4.3 mi Variable 1.2 mph - N/A   Overcast
10:00 AM 51 °F 48 °F 84% 30.10 in 7 mi NNE 2.3 mph - -   Clear
10:00 AM 50.0 °F 48.2 °F 94% 30.09 in 6.2 mi NNE 2.3 mph - N/A   Overcast
10:30 AM 51.8 °F 48.2 °F 88% 30.09 in 5.6 mi Variable 2.3 mph - N/A   Overcast
11:00 AM 51 °F 48 °F 87% 30.12 in 7 mi North 2.3 mph - - Rain Light Rain
11:00 AM 51.8 °F 48.2 °F 88% 30.09 in 6.2 mi Variable 2.3 mph - N/A Rain Light Rain
11:30 AM 51.8 °F 48.2 °F 88% 30.09 in 4.3 mi Variable 1.2 mph - N/A   Overcast
12:00 PM 52 °F 49 °F 85% 30.12 in 6 mi Calm Calm - - Rain Drizzle
12:00 PM 51.8 °F 48.2 °F 88% 30.09 in 6.2 mi Calm Calm - N/A   Drizzle
12:30 PM 51.8 °F 50.0 °F 94% 30.09 in 3.1 mi Calm Calm - N/A   Light Drizzle
1:00 PM 53 °F 50 °F 84% 30.10 in 7 mi North 1.2 mph - -   Clear
1:00 PM 53.6 °F 50.0 °F 88% 30.09 in 6.2 mi Variable 1.2 mph - N/A   Overcast
1:30 PM 53.6 °F 48.2 °F 82% 30.06 in 6.2 mi Variable 2.3 mph - N/A   Overcast
2:00 PM 54 °F 49 °F 79% 30.09 in 11 mi North 2.3 mph - -   Clear
2:00 PM 53.6 °F 50.0 °F 88% 30.06 in 6.2 mi Variable 2.3 mph - N/A   Overcast
2:30 PM 53.6 °F 50.0 °F 88% 30.06 in 6.2 mi Calm Calm - N/A Rain Light Rain
3:00 PM 54 °F 49 °F 78% 30.08 in 15 mi Calm Calm - -   Clear
3:00 PM 55.4 °F 50.0 °F 82% 30.06 in 6.2 mi Calm Calm - N/A   Overcast
3:30 PM 55.4 °F 48.2 °F 77% 30.06 in 6.2 mi Calm Calm - N/A   Overcast
4:00 PM 54 °F 49 °F 78% 30.09 in 16 mi Calm Calm - -   Clear
4:00 PM 53.6 °F 50.0 °F 88% 30.06 in 6.2 mi Calm Calm - N/A   Overcast
4:30 PM 53.6 °F 48.2 °F 82% 30.09 in 6.2 mi Calm Calm - N/A   Overcast
5:00 PM 53 °F 48 °F 78% 30.09 in 16 mi NNE 2.3 mph - -   Clear
5:00 PM 53.6 °F 48.2 °F 82% 30.06 in 6.2 mi Variable 2.3 mph - N/A   Overcast
5:30 PM 53.6 °F 48.2 °F 82% 30.09 in 6.2 mi Calm Calm - N/A   Overcast
6:00 PM 53 °F 48 °F 79% 30.10 in 13 mi North 2.3 mph - -   Clear
6:00 PM 53.6 °F 48.2 °F 82% 30.09 in 6.2 mi Variable 2.3 mph - N/A   Overcast
6:30 PM 53.6 °F 48.2 °F 82% 30.09 in 6.2 mi Calm Calm - N/A   Overcast
7:00 PM 53 °F 48 °F 79% 30.11 in 11 mi North 1.2 mph - -   Clear
7:00 PM 53.6 °F 48.2 °F 82% 30.09 in 6.2 mi Variable 1.2 mph - N/A   Overcast
7:30 PM 51.8 °F 48.2 °F 88% 30.09 in 5.6 mi Variable 2.3 mph - N/A   Overcast
8:00 PM 52 °F 49 °F 86% 30.12 in 5 mi North 3.5 mph - - Rain Light Rain
8:00 PM 51.8 °F 50.0 °F 94% 30.09 in 5.0 mi Variable 3.5 mph - N/A Rain Light Rain
8:30 PM 51.8 °F 50.0 °F 94% 30.12 in 3.1 mi Variable 2.3 mph - N/A Rain Light Rain
9:00 PM 51 °F 49 °F 92% 30.13 in 4 mi North 2.3 mph - - Rain Light Drizzle
9:00 PM 51.8 °F 50.0 °F 94% 30.12 in 3.7 mi Variable 2.3 mph - N/A   Light Drizzle
9:30 PM 51.8 °F 48.2 °F 88% 30.12 in 4.3 mi Variable 3.5 mph - N/A   Light Drizzle
10:00 PM 51.8 °F 48.2 °F 88% 30.09 in 3.1 mi Variable 3.5 mph - N/A   Overcast
10:30 PM 50.0 °F 48.2 °F 94% 30.09 in 3.1 mi North 3.5 mph - N/A   Overcast
11:00 PM 51 °F 49 °F 88% 30.12 in 4 mi North 3.5 mph - -   Clear
11:00 PM 50.0 °F 48.2 °F 94% 30.09 in 3.7 mi North 3.5 mph - N/A   Overcast
11:30 PM 50.0 °F 48.2 °F 94% 30.09 in 6.2 mi Variable 2.3 mph - N/A   Overcast